| time (UTC) | temp F | wind direction | speed MPH | gust MPH | rain 1hr in | rain 24hr in | rain mn in | humidity % | barometer mb |
| 20260906220024 | 97 | 136 | 8.0 | 13.0 | 0.00 | 0.00 | 0.00 | 41 | 1011.7 |
| 20260906215523 | 97 | 190 | 2.0 | 10.0 | 0.00 | 0.00 | 0.00 | 41 | 1011.8 |
| 20260906215021 | 96 | 124 | 7.0 | 10.0 | 0.00 | 0.00 | 0.00 | 42 | 1011.8 |
| 20260906214520 | 96 | 120 | 7.0 | 12.0 | 0.00 | 0.00 | 0.00 | 42 | 1011.9 |
| 20260906214016 | 97 | 132 | 4.0 | 17.0 | 0.00 | 0.00 | 0.00 | 41 | 1012.1 |
| 20260906213515 | 97 | 117 | 5.0 | 16.0 | 0.00 | 0.00 | 0.00 | 41 | 1011.9 |
| 20260906213010 | 97 | 110 | 16.0 | 18.0 | 0.00 | 0.00 | 0.00 | 41 | 1011.9 |
| 20260906212502 | 96 | 70 | 5.0 | 11.0 | 0.00 | 0.00 | 0.00 | 42 | 1012.2 |
| 20260906211958 | 96 | 83 | 10.0 | 15.0 | 0.00 | 0.00 | 0.00 | 42 | 1012.3 |
| 20260906211452 | 96 | 136 | 5.0 | 17.0 | 0.00 | 0.00 | 0.00 | 42 | 1012.4 |
| 20260906210947 | 97 | 115 | 8.0 | 13.0 | 0.00 | 0.00 | 0.00 | 41 | 1012.3 |
| 20260906210443 | 98 | 156 | 3.0 | 12.0 | 0.00 | 0.00 | 0.00 | 41 | 1012.6 |
| 20260906205936 | 96 | 143 | 14.0 | 17.0 | 0.00 | 0.00 | 0.00 | 42 | 1012.3 |
| 20260906205433 | 98 | 130 | 7.0 | 15.0 | 0.00 | 0.00 | 0.00 | 41 | 1012.4 |
| 20260906204928 | 98 | 127 | 13.0 | 16.0 | 0.00 | 0.00 | 0.00 | 40 | 1012.5 |
| 20260906204428 | 97 | 142 | 13.0 | 16.0 | 0.00 | 0.00 | 0.00 | 42 | 1012.5 |
| 20260906203927 | 96 | 156 | 10.0 | 14.0 | 0.00 | 0.00 | 0.00 | 43 | 1012.7 |
| 20260906203422 | 96 | 153 | 16.0 | 20.0 | 0.00 | 0.00 | 0.00 | 43 | 1012.6 |
| 20260906202920 | 97 | 143 | 17.0 | 19.0 | 0.00 | 0.00 | 0.00 | 42 | 1012.7 |
| 20260906202419 | 95 | 150 | 7.0 | 13.0 | 0.00 | 0.00 | 0.00 | 44 | 1012.8 |
| 20260906201914 | 95 | 101 | 12.0 | 18.0 | 0.00 | 0.00 | 0.00 | 44 | 1012.9 |
| 20260906201408 | 96 | 111 | 4.0 | 11.0 | 0.00 | 0.00 | 0.00 | 44 | 1012.9 |
| 20260906200904 | 96 | 132 | 5.0 | 13.0 | 0.00 | 0.00 | 0.00 | 42 | 1012.9 |
| 20260906200359 | 96 | 148 | 12.0 | 16.0 | 0.00 | 0.00 | 0.00 | 42 | 1013.1 |
| 20260906195854 | 97 | 149 | 13.0 | 15.0 | 0.00 | 0.00 | 0.00 | 42 | 1013.0 |
| 20260906195350 | 96 | 182 | 3.0 | 13.0 | 0.00 | 0.00 | 0.00 | 43 | 1013.1 |
| 20260906194846 | 95 | 48 | 9.0 | 15.0 | 0.00 | 0.00 | 0.00 | 44 | 1013.0 |
| 20260906194342 | 96 | 122 | 9.0 | 17.0 | 0.00 | 0.00 | 0.00 | 43 | 1013.3 |
| 20260906193837 | 95 | 113 | 6.0 | 17.0 | 0.00 | 0.00 | 0.00 | 43 | 1013.4 |
| 20260906193332 | 95 | 156 | 10.0 | 19.0 | 0.00 | 0.00 | 0.00 | 43 | 1013.2 |
| 20260906192828 | 97 | 143 | 14.0 | 15.0 | 0.00 | 0.00 | 0.00 | 44 | 1013.4 |
| 20260906192327 | 96 | 92 | 13.0 | 13.0 | 0.00 | 0.00 | 0.00 | 43 | 1013.4 |
| 20260906191826 | 96 | 161 | 10.0 | 19.0 | 0.00 | 0.00 | 0.00 | 42 | 1013.5 |
| 20260906191316 | 96 | 151 | 8.0 | 16.0 | 0.00 | 0.00 | 0.00 | 44 | 1013.5 |
| 20260906190816 | 96 | 177 | 11.0 | 13.0 | 0.00 | 0.00 | 0.00 | 43 | 1013.6 |
| 20260906190315 | 96 | 118 | 6.0 | 24.0 | 0.00 | 0.00 | 0.00 | 43 | 1013.4 |
| 20260906185815 | 95 | 169 | 3.0 | 11.0 | 0.00 | 0.00 | 0.00 | 44 | 1013.6 |
| 20260906185314 | 97 | 136 | 14.0 | 17.0 | 0.00 | 0.00 | 0.00 | 43 | 1013.8 |
| 20260906184809 | 95 | 163 | 5.0 | 7.0 | 0.00 | 0.00 | 0.00 | 45 | 1013.6 |
| 20260906184304 | 96 | 146 | 8.0 | 17.0 | 0.00 | 0.00 | 0.00 | 44 | 1013.7 |
| 20260906183759 | 95 | 113 | 5.0 | 11.0 | 0.00 | 0.00 | 0.00 | 44 | 1013.8 |
| 20260906183256 | 95 | 121 | 8.0 | 15.0 | 0.00 | 0.00 | 0.00 | 44 | 1013.7 |
| 20260906182755 | 94 | 134 | 11.0 | 17.0 | 0.00 | 0.00 | 0.00 | 45 | 1013.8 |
| 20260906182251 | 95 | 160 | 9.0 | 12.0 | 0.00 | 0.00 | 0.00 | 45 | 1013.8 |
| 20260906181746 | 95 | 102 | 8.0 | 10.0 | 0.00 | 0.00 | 0.00 | 46 | 1014.0 |
| 20260906181242 | 94 | 137 | 5.0 | 18.0 | 0.00 | 0.00 | 0.00 | 47 | 1013.9 |
| 20260906180737 | 95 | 172 | 8.0 | 12.0 | 0.00 | 0.00 | 0.00 | 47 | 1014.1 |
| 20260906180232 | 94 | 99 | 3.0 | 10.0 | 0.00 | 0.00 | 0.00 | 48 | 1014.2 |
| 20260906175730 | 95 | 122 | 15.0 | 18.0 | 0.00 | 0.00 | 0.00 | 47 | 1014.2 |
| 20260906175225 | 93 | 183 | 4.0 | 13.0 | 0.00 | 0.00 | 0.00 | 49 | 1014.4 |
| 20260906174724 | 94 | 131 | 7.0 | 9.0 | 0.00 | 0.00 | 0.00 | 49 | 1014.7 |
| 20260906174218 | 96 | 120 | 7.0 | 13.0 | 0.00 | 0.00 | 0.00 | 45 | 1014.6 |
| 20260906173713 | 94 | 137 | 10.0 | 13.0 | 0.00 | 0.00 | 0.00 | 46 | 1014.8 |
| 20260906173209 | 93 | 142 | 12.0 | 21.0 | 0.00 | 0.00 | 0.00 | 47 | 1014.7 |
| 20260906172703 | 92 | 151 | 7.0 | 17.0 | 0.00 | 0.00 | 0.00 | 50 | 1014.7 |
| 20260906172159 | 93 | 137 | 11.0 | 18.0 | 0.00 | 0.00 | 0.00 | 49 | 1014.9 |
| 20260906171658 | 94 | 121 | 16.0 | 21.0 | 0.00 | 0.00 | 0.00 | 48 | 1014.8 |
| 20260906171154 | 93 | 79 | 5.0 | 13.0 | 0.00 | 0.00 | 0.00 | 49 | 1015.1 |
| 20260906170650 | 93 | 136 | 1.0 | 11.0 | 0.00 | 0.00 | 0.00 | 50 | 1015.0 |
| 20260906170149 | 92 | 156 | 5.0 | 16.0 | 0.00 | 0.00 | 0.00 | 51 | 1015.1 |
| 20260906165646 | 94 | 161 | 5.0 | 8.0 | 0.00 | 0.00 | 0.00 | 50 | 1015.1 |
| 20260906165141 | 93 | 89 | 5.0 | 11.0 | 0.00 | 0.00 | 0.00 | 50 | 1015.1 |
| 20260906164639 | 92 | 119 | 4.0 | 15.0 | 0.00 | 0.00 | 0.00 | 52 | 1015.1 |
| 20260906164135 | 91 | 141 | 5.0 | 12.0 | 0.00 | 0.00 | 0.00 | 52 | 1015.3 |
| 20260906163631 | 92 | 119 | 7.0 | 13.0 | 0.00 | 0.00 | 0.00 | 51 | 1015.3 |
| 20260906163127 | 92 | 156 | 5.0 | 10.0 | 0.00 | 0.00 | 0.00 | 53 | 1015.2 |
| 20260906162624 | 91 | 81 | 7.0 | 10.0 | 0.00 | 0.00 | 0.00 | 54 | 1015.3 |
| 20260906162118 | 91 | 131 | 13.0 | 15.0 | 0.00 | 0.00 | 0.00 | 54 | 1015.4 |
| 20260906161613 | 92 | 145 | 5.0 | 13.0 | 0.00 | 0.00 | 0.00 | 54 | 1015.2 |
| 20260906161112 | 91 | 148 | 3.0 | 5.0 | 0.00 | 0.00 | 0.00 | 55 | 1015.3 |
| 20260906160611 | 92 | 104 | 5.0 | 8.0 | 0.00 | 0.00 | 0.00 | 54 | 1015.2 |
| 20260906160110 | 91 | 149 | 3.0 | 10.0 | 0.00 | 0.00 | 0.00 | 55 | 1015.3 |
| 20260906155608 | 92 | 137 | 3.0 | 6.0 | 0.00 | 0.00 | 0.00 | 54 | 1015.2 |
| 20260906155104 | 91 | 141 | 1.0 | 5.0 | 0.00 | 0.00 | 0.00 | 58 | 1015.3 |
| 20260906154559 | 91 | 71 | 2.0 | 7.0 | 0.00 | 0.00 | 0.00 | 58 | 1015.5 |
| 20260906154057 | 90 | 114 | 3.0 | 6.0 | 0.00 | 0.00 | 0.00 | 60 | 1015.3 |
| 20260906153556 | 90 | 109 | 2.0 | 9.0 | 0.00 | 0.00 | 0.00 | 61 | 1015.2 |
| 20260906153051 | 91 | 33 | 1.0 | 2.0 | 0.00 | 0.00 | 0.00 | 60 | 1015.1 |
| 20260906152550 | 89 | 81 | 3.0 | 6.0 | 0.00 | 0.00 | 0.00 | 63 | 1015.2 |
| 20260906152045 | 90 | 107 | 3.0 | 5.0 | 0.00 | 0.00 | 0.00 | 61 | 1015.1 |
| 20260906151540 | 89 | 50 | 2.0 | 3.0 | 0.00 | 0.00 | 0.00 | 62 | 1015.0 |
| 20260906151036 | 88 | 200 | 3.0 | 5.0 | 0.00 | 0.00 | 0.00 | 65 | 1014.9 |
| 20260906150531 | 89 | 145 | 4.0 | 5.0 | 0.00 | 0.00 | 0.00 | 63 | 1014.9 |
| 20260906150027 | 87 | 223 | 0.0 | 6.0 | 0.00 | 0.00 | 0.00 | 67 | 1014.8 |
| 20260906145525 | 87 | 154 | 0.0 | 5.0 | 0.00 | 0.00 | 0.00 | 66 | 1015.0 |
| 20260906145020 | 87 | 181 | 1.0 | 5.0 | 0.00 | 0.00 | 0.00 | 67 | 1014.9 |
| 20260906144514 | 87 | 36 | 1.0 | 5.0 | 0.00 | 0.00 | 0.00 | 67 | 1014.9 |
| 20260906144010 | 86 | 126 | 4.0 | 6.0 | 0.00 | 0.00 | 0.00 | 69 | 1014.7 |
| 20260906143504 | 85 | 138 | 2.0 | 7.0 | 0.00 | 0.00 | 0.00 | 70 | 1015.0 |
| 20260906143001 | 84 | 135 | 6.0 | 6.0 | 0.00 | 0.00 | 0.00 | 72 | 1014.7 |
| 20260906142454 | 84 | 159 | 5.0 | 8.0 | 0.00 | 0.00 | 0.00 | 73 | 1014.7 |
| 20260906141949 | 83 | 167 | 5.0 | 7.0 | 0.00 | 0.00 | 0.00 | 73 | 1014.8 |
| 20260906141448 | 84 | 151 | 5.0 | 7.0 | 0.00 | 0.00 | 0.00 | 73 | 1014.8 |
| 20260906140944 | 82 | 150 | 6.0 | 11.0 | 0.00 | 0.00 | 0.00 | 76 | 1015.0 |
| 20260906140433 | 82 | 141 | 4.0 | 8.0 | 0.00 | 0.00 | 0.00 | 76 | 1015.0 |
| 20260906135931 | 82 | 146 | 6.0 | 11.0 | 0.00 | 0.00 | 0.00 | 78 | 1014.9 |
| 20260906135430 | 81 | 138 | 4.0 | 12.0 | 0.00 | 0.00 | 0.00 | 78 | 1014.8 |
| 20260906134926 | 81 | 137 | 4.0 | 9.0 | 0.00 | 0.00 | 0.00 | 78 | 1014.9 |
| 20260906134421 | 81 | 130 | 4.0 | 9.0 | 0.00 | 0.00 | 0.00 | 79 | 1014.8 |
| 20260906133916 | 81 | 126 | 6.0 | 9.0 | 0.00 | 0.00 | 0.00 | 80 | 1014.8 |
| 20260906133412 | 80 | 131 | 7.0 | 11.0 | 0.00 | 0.00 | 0.00 | 81 | 1014.8 |
| 20260906132907 | 80 | 136 | 6.0 | 9.0 | 0.00 | 0.00 | 0.00 | 81 | 1014.9 |
| 20260906132402 | 80 | 141 | 6.0 | 10.0 | 0.00 | 0.00 | 0.00 | 81 | 1014.9 |
| 20260906131858 | 79 | 147 | 7.0 | 9.0 | 0.00 | 0.00 | 0.00 | 82 | 1014.8 |
| 20260906131353 | 79 | 150 | 5.0 | 9.0 | 0.00 | 0.00 | 0.00 | 82 | 1014.6 |
| 20260906130849 | 78 | 145 | 6.0 | 9.0 | 0.00 | 0.00 | 0.00 | 82 | 1014.6 |
| 20260906130348 | 78 | 143 | 4.0 | 8.0 | 0.00 | 0.00 | 0.00 | 83 | 1014.6 |
| 20260906125848 | 78 | 134 | 5.0 | 8.0 | 0.00 | 0.00 | 0.00 | 83 | 1014.4 |
| 20260906125345 | 78 | 131 | 4.0 | 6.0 | 0.00 | 0.00 | 0.00 | 83 | 1014.6 |
| 20260906124839 | 78 | 136 | 3.0 | 8.0 | 0.00 | 0.00 | 0.00 | 83 | 1014.5 |
| 20260906124336 | 78 | 134 | 4.0 | 7.0 | 0.00 | 0.00 | 0.00 | 84 | 1014.6 |
| 20260906123835 | 77 | 129 | 4.0 | 8.0 | 0.00 | 0.00 | 0.00 | 84 | 1014.6 |
| 20260906123330 | 77 | 111 | 8.0 | 8.0 | 0.00 | 0.00 | 0.00 | 85 | 1014.4 |
| 20260906122829 | 77 | 134 | 6.0 | 9.0 | 0.00 | 0.00 | 0.00 | 85 | 1014.6 |
| 20260906122324 | 77 | 129 | 7.0 | 9.0 | 0.00 | 0.00 | 0.00 | 85 | 1014.8 |
| 20260906121821 | 77 | 133 | 5.0 | 8.0 | 0.00 | 0.00 | 0.00 | 85 | 1014.4 |
| 20260906121317 | 77 | 134 | 5.0 | 9.0 | 0.00 | 0.00 | 0.00 | 85 | 1014.3 |
| 20260906120813 | 77 | 125 | 4.0 | 8.0 | 0.00 | 0.00 | 0.00 | 85 | 1014.2 |
| 20260906120309 | 77 | 119 | 6.0 | 7.0 | 0.00 | 0.00 | 0.00 | 85 | 1013.9 |
| 20260906115805 | 77 | 123 | 3.0 | 7.0 | 0.00 | 0.00 | 0.00 | 85 | 1014.0 |
| 20260906115300 | 77 | 126 | 5.0 | 5.0 | 0.00 | 0.00 | 0.00 | 85 | 1013.9 |
| 20260906114759 | 77 | 122 | 3.0 | 5.0 | 0.00 | 0.00 | 0.00 | 84 | 1013.7 |
| 20260906114254 | 77 | 129 | 3.0 | 5.0 | 0.00 | 0.00 | 0.00 | 85 | 1014.0 |
| 20260906113749 | 77 | 141 | 2.0 | 3.0 | 0.00 | 0.00 | 0.00 | 85 | 1014.0 |
| 20260906113249 | 77 | 110 | 2.0 | 4.0 | 0.00 | 0.00 | 0.00 | 85 | 1013.9 |
| 20260906112748 | 77 | 112 | 2.0 | 6.0 | 0.00 | 0.00 | 0.00 | 85 | 1013.8 |
| 20260906112245 | 77 | 122 | 4.0 | 7.0 | 0.00 | 0.00 | 0.00 | 85 | 1013.9 |
| 20260906111739 | 77 | 126 | 2.0 | 7.0 | 0.00 | 0.00 | 0.00 | 85 | 1013.8 |
| 20260906111233 | 77 | 111 | 3.0 | 7.0 | 0.00 | 0.00 | 0.00 | 85 | 1013.7 |
| 20260906110728 | 78 | 127 | 3.0 | 6.0 | 0.00 | 0.00 | 0.00 | 84 | 1013.7 |
| 20260906110224 | 78 | 146 | 5.0 | 7.0 | 0.00 | 0.00 | 0.00 | 84 | 1013.8 |
| 20260906105723 | 78 | 137 | 4.0 | 6.0 | 0.00 | 0.00 | 0.00 | 84 | 1013.8 |
| 20260906105219 | 77 | 116 | 0.0 | 3.0 | 0.00 | 0.00 | 0.00 | 84 | 1013.7 |
| 20260906104719 | 78 | 124 | 1.0 | 3.0 | 0.00 | 0.00 | 0.00 | 84 | 1013.7 |
| 20260906104218 | 78 | 123 | 2.0 | 4.0 | 0.00 | 0.00 | 0.00 | 84 | 1013.4 |
| 20260906103716 | 78 | 114 | 3.0 | 4.0 | 0.00 | 0.00 | 0.00 | 84 | 1013.4 |
| 20260906103211 | 78 | 132 | 4.0 | 6.0 | 0.00 | 0.00 | 0.00 | 84 | 1013.6 |
| 20260906102706 | 78 | 117 | 3.0 | 6.0 | 0.00 | 0.00 | 0.00 | 84 | 1013.5 |
| 20260906102205 | 78 | 140 | 3.0 | 6.0 | 0.00 | 0.00 | 0.00 | 84 | 1013.5 |
| 20260906101700 | 78 | 127 | 3.0 | 5.0 | 0.00 | 0.00 | 0.00 | 84 | 1013.5 |
| 20260906101155 | 78 | 142 | 3.0 | 6.0 | 0.00 | 0.00 | 0.00 | 84 | 1013.5 |
| 20260906100650 | 78 | 129 | 2.0 | 5.0 | 0.00 | 0.00 | 0.00 | 84 | 1013.3 |
| 20260906100145 | 78 | 127 | 4.0 | 5.0 | 0.00 | 0.00 | 0.00 | 83 | 1013.4 |
| 20260906095640 | 78 | 132 | 5.0 | 6.0 | 0.00 | 0.00 | 0.00 | 83 | 1013.5 |
| 20260906095135 | 78 | 134 | 2.0 | 5.0 | 0.00 | 0.00 | 0.00 | 83 | 1013.3 |
| 20260906094634 | 78 | 112 | 2.0 | 5.0 | 0.00 | 0.00 | 0.00 | 83 | 1013.4 |
| 20260906094130 | 78 | 133 | 2.0 | 5.0 | 0.00 | 0.00 | 0.00 | 83 | 1013.4 |
| 20260906093626 | 78 | 114 | 2.0 | 4.0 | 0.00 | 0.00 | 0.00 | 83 | 1013.4 |
| 20260906093120 | 78 | 94 | 2.0 | 4.0 | 0.00 | 0.00 | 0.00 | 82 | 1013.3 |
| 20260906092615 | 78 | 66 | 2.0 | 3.0 | 0.00 | 0.00 | 0.00 | 83 | 1013.2 |
| 20260906092110 | 78 | 48 | 0.0 | 2.0 | 0.00 | 0.00 | 0.00 | 82 | 1013.1 |
| 20260906091606 | 78 | 351 | 2.0 | 2.0 | 0.00 | 0.00 | 0.00 | 82 | 1012.8 |
| 20260906091103 | 78 | 338 | 1.0 | 2.0 | 0.00 | 0.00 | 0.00 | 82 | 1013.1 |
| 20260906090557 | 78 | 331 | 2.0 | 3.0 | 0.00 | 0.00 | 0.00 | 81 | 1012.7 |
| 20260906090057 | 79 | 227 | 0.0 | 2.0 | 0.00 | 0.00 | 0.00 | 81 | 1012.8 |
| 20260906085556 | 79 | 195 | 1.0 | 3.0 | 0.00 | 0.00 | 0.00 | 81 | 1012.8 |
| 20260906085051 | 79 | 161 | 4.0 | 5.0 | 0.00 | 0.00 | 0.00 | 80 | 1012.8 |
| 20260906084545 | 79 | 158 | 4.0 | 7.0 | 0.00 | 0.00 | 0.00 | 80 | 1012.9 |
| 20260906084044 | 79 | 145 | 4.0 | 7.0 | 0.00 | 0.00 | 0.00 | 80 | 1012.9 |
| 20260906083540 | 80 | 145 | 10.0 | 10.0 | 0.00 | 0.00 | 0.00 | 79 | 1012.9 |
| 20260906083039 | 80 | 150 | 4.0 | 8.0 | 0.00 | 0.00 | 0.00 | 79 | 1012.8 |
| 20260906082535 | 80 | 156 | 4.0 | 8.0 | 0.00 | 0.00 | 0.00 | 78 | 1012.7 |
| 20260906082031 | 80 | 155 | 4.0 | 7.0 | 0.00 | 0.00 | 0.00 | 78 | 1012.8 |
| 20260906081526 | 80 | 145 | 4.0 | 10.0 | 0.00 | 0.00 | 0.00 | 78 | 1012.6 |
| 20260906081021 | 80 | 157 | 7.0 | 10.0 | 0.00 | 0.00 | 0.00 | 77 | 1012.5 |
| 20260906080518 | 80 | 160 | 4.0 | 10.0 | 0.00 | 0.00 | 0.00 | 77 | 1012.7 |
| 20260906080014 | 80 | 158 | 6.0 | 12.0 | 0.00 | 0.00 | 0.00 | 77 | 1012.7 |
| 20260906075508 | 80 | 153 | 6.0 | 9.0 | 0.00 | 0.00 | 0.00 | 77 | 1012.8 |
| 20260906075002 | 80 | 162 | 7.0 | 10.0 | 0.00 | 0.00 | 0.00 | 77 | 1013.0 |
| 20260906074457 | 80 | 148 | 5.0 | 10.0 | 0.00 | 0.00 | 0.00 | 77 | 1013.2 |
| 20260906073955 | 81 | 160 | 6.0 | 10.0 | 0.00 | 0.00 | 0.00 | 76 | 1013.0 |
| 20260906073450 | 81 | 149 | 7.0 | 8.0 | 0.00 | 0.00 | 0.00 | 76 | 1013.1 |
| 20260906072947 | 81 | 149 | 6.0 | 8.0 | 0.00 | 0.00 | 0.00 | 76 | 1013.2 |
| 20260906072442 | 81 | 150 | 6.0 | 8.0 | 0.00 | 0.00 | 0.00 | 76 | 1013.2 |
| 20260906071938 | 81 | 150 | 5.0 | 8.0 | 0.00 | 0.00 | 0.00 | 75 | 1013.1 |
| 20260906071434 | 82 | 159 | 5.0 | 9.0 | 0.00 | 0.00 | 0.00 | 75 | 1013.2 |
| 20260906070929 | 82 | 164 | 3.0 | 9.0 | 0.00 | 0.00 | 0.00 | 74 | 1013.0 |
| 20260906070425 | 82 | 161 | 6.0 | 10.0 | 0.00 | 0.00 | 0.00 | 74 | 1012.9 |
| 20260906065921 | 82 | 158 | 7.0 | 9.0 | 0.00 | 0.00 | 0.00 | 74 | 1012.9 |
| 20260906065415 | 82 | 151 | 5.0 | 10.0 | 0.00 | 0.00 | 0.00 | 74 | 1013.0 |
| 20260906064910 | 82 | 169 | 4.0 | 10.0 | 0.00 | 0.00 | 0.00 | 73 | 1013.2 |
| 20260906064407 | 82 | 168 | 4.0 | 9.0 | 0.00 | 0.00 | 0.00 | 73 | 1013.2 |
| 20260906063901 | 82 | 167 | 6.0 | 10.0 | 0.00 | 0.00 | 0.00 | 73 | 1013.4 |
| 20260906063356 | 82 | 161 | 6.0 | 8.0 | 0.00 | 0.00 | 0.00 | 73 | 1013.2 |
| 20260906062851 | 83 | 168 | 4.0 | 8.0 | 0.00 | 0.00 | 0.00 | 72 | 1012.9 |
| 20260906062350 | 83 | 169 | 4.0 | 8.0 | 0.00 | 0.00 | 0.00 | 72 | 1013.2 |
| 20260906061846 | 83 | 162 | 4.0 | 7.0 | 0.00 | 0.00 | 0.00 | 72 | 1013.4 |
| 20260906061342 | 83 | 168 | 5.0 | 8.0 | 0.00 | 0.00 | 0.00 | 72 | 1013.3 |
| 20260906060837 | 83 | 155 | 6.0 | 10.0 | 0.00 | 0.00 | 0.00 | 72 | 1013.4 |
| 20260906060335 | 83 | 160 | 5.0 | 9.0 | 0.00 | 0.00 | 0.00 | 72 | 1013.5 |
| 20260906055830 | 83 | 147 | 8.0 | 11.0 | 0.00 | 0.00 | 0.00 | 71 | 1013.5 |
| 20260906055326 | 83 | 173 | 8.0 | 10.0 | 0.00 | 0.00 | 0.00 | 71 | 1013.6 |
| 20260906054821 | 83 | 161 | 4.0 | 8.0 | 0.00 | 0.00 | 0.00 | 71 | 1013.5 |
| 20260906054316 | 83 | 152 | 7.0 | 9.0 | 0.00 | 0.00 | 0.00 | 70 | 1013.7 |
| 20260906053812 | 84 | 159 | 6.0 | 9.0 | 0.00 | 0.00 | 0.00 | 70 | 1013.5 |
| 20260906053308 | 84 | 180 | 3.0 | 8.0 | 0.00 | 0.00 | 0.00 | 69 | 1013.6 |
| 20260906052802 | 84 | 170 | 5.0 | 9.0 | 0.00 | 0.00 | 0.00 | 69 | 1013.3 |
| 20260906052259 | 84 | 159 | 10.0 | 10.0 | 0.00 | 0.00 | 0.00 | 69 | 1013.6 |
| 20260906051755 | 84 | 158 | 5.0 | 9.0 | 0.00 | 0.00 | 0.00 | 68 | 1013.4 |
| 20260906051249 | 84 | 162 | 6.0 | 9.0 | 0.00 | 0.00 | 0.00 | 68 | 1013.5 |
| 20260906050744 | 84 | 162 | 6.0 | 8.0 | 0.00 | 0.00 | 0.00 | 67 | 1013.3 |
| 20260906050240 | 85 | 157 | 7.0 | 8.0 | 0.00 | 0.00 | 0.00 | 67 | 1013.6 |
| 20260906045738 | 85 | 162 | 5.0 | 9.0 | 0.00 | 0.00 | 0.00 | 66 | 1013.7 |
| 20260906045233 | 85 | 166 | 4.0 | 8.0 | 0.00 | 0.00 | 0.00 | 66 | 1013.6 |
| 20260906044729 | 85 | 170 | 5.0 | 7.0 | 0.00 | 0.00 | 0.00 | 65 | 1013.5 |
| 20260906044224 | 85 | 182 | 3.0 | 6.0 | 0.00 | 0.00 | 0.00 | 65 | 1013.5 |
| 20260906043720 | 85 | 178 | 4.0 | 6.0 | 0.00 | 0.00 | 0.00 | 65 | 1013.2 |
| 20260906043216 | 85 | 166 | 4.0 | 6.0 | 0.00 | 0.00 | 0.00 | 65 | 1013.4 |
| 20260906042715 | 85 | 164 | 5.0 | 5.0 | 0.00 | 0.00 | 0.00 | 65 | 1013.5 |
| 20260906042209 | 85 | 168 | 3.0 | 5.0 | 0.00 | 0.00 | 0.00 | 64 | 1013.5 |
| 20260906041704 | 86 | 154 | 3.0 | 6.0 | 0.00 | 0.00 | 0.00 | 64 | 1013.3 |
| 20260906041159 | 86 | 142 | 6.0 | 8.0 | 0.00 | 0.00 | 0.00 | 64 | 1013.3 |
| 20260906040655 | 86 | 162 | 3.0 | 9.0 | 0.00 | 0.00 | 0.00 | 63 | 1013.4 |
| 20260906040150 | 86 | 144 | 5.0 | 8.0 | 0.00 | 0.00 | 0.00 | 63 | 1013.4 |
| 20260906035645 | 86 | 149 | 7.0 | 8.0 | 0.00 | 0.00 | 0.00 | 62 | 1013.3 |
| 20260906035141 | 86 | 150 | 5.0 | 7.0 | 0.00 | 0.00 | 0.00 | 62 | 1013.2 |
| 20260906034636 | 87 | 141 | 7.0 | 8.0 | 0.00 | 0.00 | 0.00 | 61 | 1013.4 |
| 20260906034130 | 87 | 156 | 5.0 | 9.0 | 0.00 | 0.00 | 0.00 | 61 | 1013.3 |
| 20260906033626 | 87 | 147 | 7.0 | 9.0 | 0.00 | 0.00 | 0.00 | 60 | 1013.4 |
| 20260906033120 | 87 | 146 | 6.0 | 9.0 | 0.00 | 0.00 | 0.00 | 60 | 1013.3 |
| 20260906032618 | 87 | 146 | 5.0 | 9.0 | 0.00 | 0.00 | 0.00 | 59 | 1013.3 |
| 20260906032117 | 87 | 153 | 4.0 | 9.0 | 0.00 | 0.00 | 0.00 | 59 | 1013.3 |
| 20260906031612 | 88 | 142 | 4.0 | 10.0 | 0.00 | 0.00 | 0.00 | 58 | 1013.2 |
| 20260906031108 | 88 | 160 | 8.0 | 10.0 | 0.00 | 0.00 | 0.00 | 58 | 1013.2 |
| 20260906030607 | 88 | 150 | 8.0 | 11.0 | 0.00 | 0.00 | 0.00 | 57 | 1013.3 |
| 20260906025602 | 88 | 150 | 7.0 | 11.0 | 0.00 | 0.00 | 0.00 | 56 | 1013.2 |
| 20260906025100 | 89 | 162 | 8.0 | 9.0 | 0.00 | 0.00 | 0.00 | 55 | 1013.1 |
| 20260906024555 | 89 | 138 | 6.0 | 12.0 | 0.00 | 0.00 | 0.00 | 54 | 1013.1 |
| 20260906024050 | 89 | 158 | 4.0 | 16.0 | 0.00 | 0.00 | 0.00 | 54 | 1013.0 |
| 20260906023546 | 90 | 129 | 7.0 | 16.0 | 0.00 | 0.00 | 0.00 | 51 | 1012.7 |
| 20260906023040 | 90 | 123 | 3.0 | 7.0 | 0.00 | 0.00 | 0.00 | 49 | 1012.5 |
| 20260906022535 | 91 | 149 | 2.0 | 5.0 | 0.00 | 0.00 | 0.00 | 49 | 1012.5 |
| 20260906022031 | 91 | 137 | 3.0 | 7.0 | 0.00 | 0.00 | 0.00 | 48 | 1012.4 |
| 20260906021526 | 91 | 127 | 4.0 | 5.0 | 0.00 | 0.00 | 0.00 | 48 | 1012.4 |
| 20260906021020 | 91 | 103 | 2.0 | 7.0 | 0.00 | 0.00 | 0.00 | 48 | 1012.4 |
| 20260906020520 | 91 | 118 | 3.0 | 5.0 | 0.00 | 0.00 | 0.00 | 48 | 1012.3 |
| 20260906020019 | 91 | 125 | 3.0 | 6.0 | 0.00 | 0.00 | 0.00 | 48 | 1012.1 |
| 20260906015518 | 91 | 107 | 3.0 | 6.0 | 0.00 | 0.00 | 0.00 | 48 | 1012.2 |
| 20260906015018 | 91 | 127 | 2.0 | 6.0 | 0.00 | 0.00 | 0.00 | 48 | 1011.9 |
| 20260906014513 | 91 | 105 | 3.0 | 5.0 | 0.00 | 0.00 | 0.00 | 47 | 1011.8 |
| 20260906014009 | 91 | 128 | 2.0 | 4.0 | 0.00 | 0.00 | 0.00 | 47 | 1011.9 |
| 20260906013504 | 92 | 120 | 3.0 | 6.0 | 0.00 | 0.00 | 0.00 | 46 | 1011.7 |
| 20260906013000 | 92 | 117 | 2.0 | 5.0 | 0.00 | 0.00 | 0.00 | 46 | 1011.9 |
| 20260906012455 | 92 | 104 | 4.0 | 7.0 | 0.00 | 0.00 | 0.00 | 46 | 1011.6 |
| 20260906011954 | 92 | 114 | 3.0 | 4.0 | 0.00 | 0.00 | 0.00 | 45 | 1011.6 |
| 20260906011450 | 93 | 112 | 2.0 | 3.0 | 0.00 | 0.00 | 0.00 | 45 | 1011.6 |
| 20260906010944 | 93 | 132 | 1.0 | 5.0 | 0.00 | 0.00 | 0.00 | 45 | 1011.8 |
| 20260906010439 | 93 | 100 | 1.0 | 6.0 | 0.00 | 0.00 | 0.00 | 44 | 1011.4 |
| 20260906005936 | 93 | 134 | 5.0 | 6.0 | 0.00 | 0.00 | 0.00 | 44 | 1011.6 |
| 20260906005430 | 94 | 123 | 4.0 | 5.0 | 0.00 | 0.00 | 0.00 | 43 | 1011.4 |
| 20260906004928 | 94 | 155 | 0.0 | 4.0 | 0.00 | 0.00 | 0.00 | 43 | 1011.4 |
| 20260906004423 | 94 | 149 | 0.0 | 4.0 | 0.00 | 0.00 | 0.00 | 43 | 1011.4 |
| 20260906003918 | 95 | 117 | 0.0 | 6.0 | 0.00 | 0.00 | 0.00 | 42 | 1011.5 |
| 20260906003413 | 95 | 122 | 3.0 | 5.0 | 0.00 | 0.00 | 0.00 | 42 | 1011.6 |
| 20260906002909 | 96 | 143 | 3.0 | 4.0 | 0.00 | 0.00 | 0.00 | 41 | 1011.4 |
| 20260906002408 | 96 | 158 | 2.0 | 5.0 | 0.00 | 0.00 | 0.00 | 41 | 1011.5 |
| 20260906001904 | 96 | 114 | 3.0 | 5.0 | 0.00 | 0.00 | 0.00 | 41 | 1011.4 |
| 20260906001400 | 96 | 144 | 6.0 | 7.0 | 0.00 | 0.00 | 0.00 | 41 | 1011.4 |
| 20260906000859 | 96 | 94 | 2.0 | 8.0 | 0.00 | 0.00 | 0.00 | 41 | 1011.4 |
| 20260906000356 | 97 | 133 | 3.0 | 7.0 | 0.00 | 0.00 | 0.00 | 40 | 1011.3 |
| 20260905235849 | 97 | 275 | 0.0 | 4.0 | 0.00 | 0.00 | 0.00 | 40 | 1011.2 |
| 20260905235343 | 96 | 117 | 4.0 | 7.0 | 0.00 | 0.00 | 0.00 | 40 | 1011.4 |
| 20260905234838 | 97 | 101 | 8.0 | 10.0 | 0.00 | 0.00 | 0.00 | 40 | 1011.4 |
| 20260905234334 | 97 | 157 | 0.0 | 6.0 | 0.00 | 0.00 | 0.00 | 40 | 1011.2 |
| 20260905233829 | 97 | 144 | 4.0 | 12.0 | 0.00 | 0.00 | 0.00 | 40 | 1011.3 |
| 20260905233324 | 97 | 176 | 4.0 | 11.0 | 0.00 | 0.00 | 0.00 | 40 | 1011.4 |
| 20260905232823 | 97 | 115 | 4.0 | 10.0 | 0.00 | 0.00 | 0.00 | 40 | 1011.2 |
| 20260905232319 | 97 | 74 | 3.0 | 7.0 | 0.00 | 0.00 | 0.00 | 40 | 1011.2 |
| 20260905231815 | 97 | 105 | 3.0 | 7.0 | 0.00 | 0.00 | 0.00 | 40 | 1011.3 |
| 20260905231310 | 97 | 144 | 4.0 | 8.0 | 0.00 | 0.00 | 0.00 | 39 | 1011.2 |
| 20260905230806 | 98 | 155 | 4.0 | 7.0 | 0.00 | 0.00 | 0.00 | 39 | 1011.2 |
| 20260905230304 | 97 | 161 | 5.0 | 11.0 | 0.00 | 0.00 | 0.00 | 40 | 1011.1 |
| 20260905225803 | 97 | 125 | 10.0 | 11.0 | 0.00 | 0.00 | 0.00 | 40 | 1011.2 |
| 20260905225259 | 97 | 147 | 5.0 | 10.0 | 0.00 | 0.00 | 0.00 | 40 | 1011.1 |
| 20260905224758 | 98 | 110 | 6.0 | 8.0 | 0.00 | 0.00 | 0.00 | 38 | 1011.2 |
| 20260905224254 | 97 | 61 | 3.0 | 12.0 | 0.00 | 0.00 | 0.00 | 39 | 1011.1 |
| 20260905223749 | 98 | 137 | 7.0 | 10.0 | 0.00 | 0.00 | 0.00 | 37 | 1011.0 |
| 20260905223246 | 97 | 157 | 5.0 | 10.0 | 0.00 | 0.00 | 0.00 | 38 | 1011.4 |
| 20260905222741 | 98 | 140 | 5.0 | 11.0 | 0.00 | 0.00 | 0.00 | 37 | 1011.3 |
| 20260905222240 | 99 | 60 | 1.0 | 6.0 | 0.00 | 0.00 | 0.00 | 36 | 1011.2 |
| 20260905221736 | 98 | 200 | 5.0 | 9.0 | 0.00 | 0.00 | 0.00 | 37 | 1011.1 |
| 20260905221233 | 98 | 58 | 3.0 | 7.0 | 0.00 | 0.00 | 0.00 | 37 | 1011.2 |
| 20260905220729 | 97 | 139 | 1.0 | 13.0 | 0.00 | 0.00 | 0.00 | 38 | 1011.5 |